CW0133 Weather Reports


time (UTC)temp
F
wind
direction
speed
knots
gust
knots
rain 1hr
in
rain 24hr
in
rain mn
in
humidity
%
barometer
mb
20240222094003 66 208 5.2 10.4 0.00 0.00 0.00 84 1013.3
20240222093504 66 194 4.3 9.6 0.00 0.00 0.00 84 1013.6
20240222093003 66 175 5.2 14.8 0.00 0.00 0.00 84 1013.4
20240222092524 66 169 6.1 14.8 0.00 0.00 0.00 84 1013.0
20240222092003 66 167 7.0 14.8 0.00 0.00 0.00 84 1012.9
20240222091504 66 169 7.0 14.8 0.00 0.00 0.00 84 1012.8
20240222091003 66 168 7.0 14.8 0.00 0.00 0.00 84 1012.7
20240222090503 66 171 7.0 14.8 0.00 0.00 0.00 83 1012.8
20240222090003 66 168 7.0 14.8 0.00 0.00 0.00 84 1012.8
20240222085524 66 166 8.7 17.4 0.00 0.00 0.00 84 1012.9
20240222085003 66 172 8.7 17.4 0.00 0.00 0.00 83 1012.8
20240222084504 66 174 9.6 20.0 0.00 0.00 0.00 83 1012.9
20240222084003 66 171 8.7 20.0 0.00 0.00 0.00 83 1013.0
20240222083504 66 164 8.7 15.6 0.00 0.00 0.00 83 1013.1
20240222083003 66 161 8.7 15.6 0.00 0.00 0.00 83 1013.1
20240222082504 66 159 8.7 17.4 0.00 0.00 0.00 83 1013.2
20240222082003 66 161 9.6 17.4 0.00 0.00 0.00 83 1013.1
20240222081503 66 161 9.6 17.4 0.00 0.00 0.00 83 1013.2
20240222081004 66 162 10.4 20.0 0.00 0.00 0.00 83 1013.3
20240222080503 66 166 9.6 20.0 0.00 0.00 0.00 83 1013.3
20240222080024 66 167 9.6 17.4 0.00 0.00 0.00 83 1013.4
20240222075503 66 165 9.6 17.4 0.00 0.00 0.00 83 1013.4
20240222075024 66 164 8.7 17.4 0.00 0.00 0.00 84 1013.4
20240222074524 66 168 9.6 24.3 0.00 0.00 0.00 83 1013.3
20240222074004 66 165 10.4 24.3 0.00 0.00 0.00 84 1013.2
20240222073503 66 162 10.4 20.0 0.00 0.00 0.00 84 1013.2
20240222073003 66 159 9.6 20.0 0.00 0.00 0.00 84 1013.3
20240222072503 66 160 11.3 22.6 0.00 0.00 0.00 84 1013.3
20240222072003 66 166 10.4 22.6 0.00 0.00 0.00 84 1013.5
20240222071503 66 165 9.6 14.8 0.00 0.00 0.00 84 1013.7
20240222071003 66 165 10.4 20.0 0.00 0.00 0.00 84 1013.5
20240222070524 66 167 10.4 20.0 0.00 0.00 0.00 85 1013.6
20240222070003 66 166 9.6 21.7 0.00 0.00 0.00 85 1013.8
20240222065503 66 164 10.4 21.7 0.00 0.00 0.00 85 1013.6
20240222065024 66 163 10.4 19.1 0.00 0.00 0.00 85 1013.7
20240222064503 66 166 10.4 19.1 0.00 0.00 0.00 86 1013.8
20240222064004 66 168 9.6 17.4 0.00 0.00 0.00 86 1013.8
20240222063503 66 165 9.6 17.4 0.00 0.00 0.00 86 1013.8
20240222063003 66 165 8.7 15.6 0.00 0.00 0.00 86 1014.0
20240222062525 66 165 6.1 14.8 0.00 0.00 0.00 86 1014.0
20240222062003 66 164 7.0 21.7 0.00 0.00 0.00 86 1014.2
20240222061503 66 161 8.7 21.7 0.00 0.00 0.00 86 1014.5
20240222061003 66 158 9.6 20.0 0.00 0.00 0.00 86 1014.5
20240222060503 66 163 9.6 20.0 0.00 0.00 0.00 86 1014.5
20240222060003 66 161 9.6 21.7 0.00 0.00 0.00 86 1014.4
20240222055524 66 162 9.6 21.7 0.00 0.00 0.00 86 1014.4
20240222055003 66 164 9.6 19.1 0.00 0.00 0.00 86 1014.6
20240222054503 66 161 8.7 19.1 0.00 0.00 0.00 86 1014.7
20240222054003 66 159 9.6 19.1 0.00 0.00 0.00 85 1014.8
20240222053503 66 156 10.4 21.7 0.00 0.00 0.00 85 1014.8
20240222053003 66 162 11.3 22.6 0.00 0.00 0.00 85 1014.8
20240222052503 66 162 12.2 24.3 0.00 0.00 0.00 85 1014.9
20240222052003 66 159 12.2 27.8 0.00 0.00 0.00 85 1014.9
20240222051503 66 161 10.4 27.8 0.00 0.00 0.00 85 1015.0
20240222051003 66 164 8.7 22.6 0.00 0.00 0.00 85 1015.0
20240222050503 66 163 9.6 17.4 0.00 0.00 0.00 85 1014.8
20240222050024 66 159 9.6 21.7 0.00 0.00 0.00 85 1014.7
20240222045503 66 159 10.4 24.3 0.00 0.00 0.00 85 1014.7
20240222045003 66 160 11.3 24.3 0.00 0.00 0.00 85 1014.7
20240222044524 66 159 10.4 21.7 0.00 0.00 0.00 85 1014.8
20240222044003 66 165 11.3 26.1 0.00 0.00 0.00 85 1014.8
20240222043503 66 166 10.4 26.1 0.00 0.00 0.00 85 1014.8
20240222043003 66 159 10.4 20.0 0.00 0.00 0.00 85 1014.9
20240222042503 66 158 12.2 24.3 0.00 0.00 0.00 85 1014.8
20240222042003 66 158 12.2 25.2 0.00 0.00 0.00 85 1014.8
20240222041503 66 157 11.3 25.2 0.00 0.00 0.00 85 1014.8
20240222040503 66 158 12.2 25.2 0.00 0.00 0.00 85 1014.8
20240222040003 66 157 11.3 22.6 0.00 0.00 0.00 85 1014.7
20240222035503 66 157 11.3 22.6 0.00 0.00 0.00 85 1014.8
20240222035024 66 159 10.4 22.6 0.00 0.00 0.00 85 1014.9
20240222034503 66 157 10.4 22.6 0.00 0.00 0.00 85 1014.9
20240222034003 66 154 10.4 22.6 0.00 0.00 0.00 85 1014.9
20240222033503 66 155 9.6 22.6 0.00 0.00 0.00 84 1014.9
20240222033025 66 155 8.7 17.4 0.00 0.00 0.00 84 1015.0
20240222032503 66 159 8.7 16.5 0.00 0.00 0.00 84 1015.1
20240222032003 66 156 9.6 16.5 0.00 0.00 0.00 84 1015.1
20240222031503 66 154 8.7 16.5 0.00 0.00 0.00 84 1015.0
20240222031024 66 150 7.0 16.5 0.00 0.00 0.00 84 1015.0
20240222030503 66 152 8.7 20.0 0.00 0.00 0.00 83 1015.0
20240222030024 66 156 8.7 20.0 0.00 0.00 0.00 83 1014.9
20240222025503 67 149 8.7 16.5 0.00 0.00 0.00 82 1014.8
20240222025003 67 150 10.4 20.9 0.00 0.00 0.00 82 1014.5
20240222024503 67 149 11.3 22.6 0.00 0.00 0.00 81 1014.2
20240222024003 67 144 11.3 22.6 0.00 0.00 0.00 81 1014.1
20240222023524 67 148 10.4 20.0 0.00 0.00 0.00 80 1014.0
20240222023003 67 147 11.3 20.9 0.00 0.00 0.00 79 1014.1
20240222022503 68 141 11.3 25.2 0.00 0.00 0.00 79 1014.0
20240222022003 68 142 10.4 25.2 0.00 0.00 0.00 78 1014.1
20240222021503 68 144 9.6 22.6 0.00 0.00 0.00 77 1014.2
20240222021003 68 145 9.6 22.6 0.00 0.00 0.00 77 1014.2
20240222020503 68 143 9.6 15.6 0.00 0.00 0.00 77 1014.3
20240222020003 69 140 9.6 17.4 0.00 0.00 0.00 76 1014.2
20240222015503 69 134 9.6 24.3 0.00 0.00 0.00 75 1014.2
20240222015024 69 134 9.6 24.3 0.00 0.00 0.00 75 1014.0
20240222014524 69 142 9.6 21.7 0.00 0.00 0.00 75 1014.0
20240222014003 70 143 10.4 21.7 0.00 0.00 0.00 74 1014.1
20240222013503 70 140 9.6 21.7 0.00 0.00 0.00 74 1014.2
20240222013003 70 134 9.6 21.7 0.00 0.00 0.00 73 1014.3
20240222012503 70 134 8.7 16.5 0.00 0.00 0.00 73 1014.3
20240222012003 70 135 8.7 16.5 0.00 0.00 0.00 72 1014.3
20240222011503 71 138 9.6 19.1 0.00 0.00 0.00 72 1014.4
20240222011003 71 140 9.6 20.0 0.00 0.00 0.00 71 1014.5
20240222010503 71 137 8.7 20.0 0.00 0.00 0.00 71 1014.6
20240222010024 71 138 8.7 15.6 0.00 0.00 0.00 71 1014.6
20240222005503 72 137 8.7 15.6 0.00 0.00 0.00 71 1014.8
20240222005004 72 136 8.7 14.8 0.00 0.00 0.00 71 1014.8
20240222004504 72 132 7.0 14.8 0.00 0.00 0.00 70 1015.0
20240222004004 72 131 7.0 15.6 0.00 0.00 0.00 70 1015.1
20240222003525 73 131 7.0 15.6 0.00 0.00 0.00 69 1015.2
20240222003004 73 132 7.0 14.8 0.00 0.00 0.00 68 1015.3
20240222002504 74 137 8.7 16.5 0.00 0.00 0.00 66 1015.2
20240222002004 74 142 7.0 16.5 0.00 0.00 0.00 66 1015.3
20240222001504 74 144 8.7 15.6 0.00 0.00 0.00 65 1015.3
20240222001004 74 143 7.0 13.9 0.00 0.00 0.00 65 1015.4
20240222000504 74 136 7.0 15.6 0.00 0.00 0.00 65 1015.3
20240222000004 75 139 8.7 15.6 0.00 0.00 0.00 65 1015.3
20240221235504 75 146 8.7 14.8 0.00 0.00 0.00 64 1015.5
20240221235004 76 146 8.7 17.4 0.00 0.00 0.00 64 1015.5
20240221234504 76 147 9.6 17.4 0.00 0.00 0.00 63 1015.5
20240221234004 76 138 9.6 17.4 0.00 0.00 0.00 64 1015.4
20240221233504 76 139 9.6 16.5 0.00 0.00 0.00 63 1015.3
20240221233004 77 149 8.7 16.5 0.00 0.00 0.00 62 1015.2
20240221232525 77 152 8.7 15.6 0.00 0.00 0.00 62 1015.2
20240221232004 77 147 9.6 16.5 0.00 0.00 0.00 61 1015.0
20240221231504 77 138 8.7 14.8 0.00 0.00 0.00 61 1015.0
20240221231004 77 134 9.6 17.4 0.00 0.00 0.00 61 1015.0
20240221230504 78 138 8.7 17.4 0.00 0.00 0.00 61 1015.1
20240221230025 78 138 8.7 14.8 0.00 0.00 0.00 60 1015.1
20240221225525 78 149 10.4 20.9 0.00 0.00 0.00 60 1015.2
20240221225004 78 154 9.6 20.9 0.00 0.00 0.00 59 1015.2
20240221224504 78 153 7.0 17.4 0.00 0.00 0.00 60 1015.3
20240221224004 78 144 8.7 15.6 0.00 0.00 0.00 61 1015.3
20240221223504 78 129 7.0 15.6 0.00 0.00 0.00 62 1015.3
20240221223004 78 141 8.7 17.4 0.00 0.00 0.00 62 1015.4
20240221222504 78 149 9.6 17.4 0.00 0.00 0.00 63 1015.5
20240221222004 77 153 9.6 17.4 0.00 0.00 0.00 63 1015.6
20240221221525 77 161 9.6 17.4 0.00 0.00 0.00 63 1015.8
20240221221025 77 152 8.7 16.5 0.00 0.00 0.00 63 1015.8
20240221220504 77 150 10.4 20.0 0.00 0.00 0.00 64 1015.9
20240221220025 77 158 10.4 20.0 0.00 0.00 0.00 64 1016.0
20240221215504 77 157 9.6 20.0 0.00 0.00 0.00 65 1016.1
20240221215003 77 160 8.7 19.1 0.00 0.00 0.00 66 1016.2
20240221214504 76 165 9.6 16.5 0.00 0.00 0.00 66 1016.3
20240221214004 76 163 8.7 17.4 0.00 0.00 0.00 66 1016.2
20240221213504 76 163 8.7 17.4 0.00 0.00 0.00 66 1016.3
20240221213025 76 154 7.0 13.9 0.00 0.00 0.00 67 1016.3
20240221212504 76 142 8.7 16.5 0.00 0.00 0.00 68 1016.5
20240221212025 76 151 8.7 16.5 0.00 0.00 0.00 67 1016.6
20240221211504 75 166 8.7 17.4 0.00 0.00 0.00 68 1016.7
20240221211025 75 174 9.6 19.1 0.00 0.00 0.00 68 1016.8
20240221210504 75 174 9.6 19.1 0.00 0.00 0.00 67 1017.0
20240221210004 75 167 8.7 16.5 0.00 0.00 0.00 68 1017.1
20240221205503 75 154 8.7 21.7 0.00 0.00 0.00 68 1017.2
20240221205004 75 146 9.6 21.7 0.00 0.00 0.00 70 1017.2
20240221204504 74 154 9.6 19.1 0.00 0.00 0.00 70 1017.3
20240221204004 74 167 10.4 20.0 0.00 0.00 0.00 70 1017.4
20240221203504 74 166 10.4 20.0 0.00 0.00 0.00 70 1017.5
20240221203004 73 161 10.4 20.0 0.00 0.00 0.00 71 1017.7
20240221202504 73 155 10.4 17.4 0.00 0.00 0.00 70 1017.9
20240221202004 73 146 9.6 16.5 0.00 0.00 0.00 70 1018.1
20240221201504 73 145 9.6 21.7 0.00 0.00 0.00 73 1018.3
20240221201003 72 154 9.6 21.7 0.00 0.00 0.00 72 1018.5
20240221200504 72 165 10.4 21.7 0.00 0.00 0.00 74 1018.7
20240221200003 72 169 11.3 21.7 0.00 0.00 0.00 74 1018.8
20240221195525 71 167 10.4 24.3 0.00 0.00 0.00 74 1018.8
20240221195004 71 153 10.4 24.3 0.00 0.00 0.00 75 1018.7
20240221194503 71 153 10.4 21.7 0.00 0.00 0.00 75 1018.9
20240221194025 71 159 10.4 19.1 0.00 0.00 0.00 76 1018.9
20240221193503 71 156 10.4 20.0 0.00 0.00 0.00 76 1019.1
20240221193004 71 153 10.4 20.9 0.00 0.00 0.00 77 1019.4
20240221192504 70 159 10.4 21.7 0.00 0.00 0.00 78 1019.5
20240221192003 70 162 9.6 21.7 0.00 0.00 0.00 78 1019.6
20240221191503 70 159 10.4 19.1 0.00 0.00 0.00 78 1019.7
20240221191025 70 163 11.3 20.0 0.00 0.00 0.00 78 1019.8
20240221190503 70 165 11.3 24.3 0.00 0.00 0.00 78 1020.0
20240221190004 70 165 11.3 26.1 0.00 0.00 0.00 77 1020.0
20240221185503 70 161 11.3 26.1 0.00 0.00 0.00 76 1020.0
20240221185003 71 161 11.3 21.7 0.00 0.00 0.00 76 1020.2
20240221184525 71 154 9.6 17.4 0.00 0.00 0.00 77 1020.3
20240221184003 71 150 9.6 19.1 0.00 0.00 0.00 78 1020.5
20240221183503 70 158 10.4 19.1 0.00 0.00 0.00 77 1020.5
20240221183004 70 158 10.4 19.1 0.00 0.00 0.00 78 1020.6
20240221182504 70 163 10.4 20.9 0.00 0.00 0.00 77 1020.7
20240221182003 71 158 11.3 20.9 0.00 0.00 0.00 76 1020.8
20240221181503 71 155 10.4 19.1 0.00 0.00 0.00 76 1021.0
20240221181003 71 162 11.3 20.0 0.00 0.00 0.00 76 1021.0
20240221180503 71 159 10.4 20.0 0.00 0.00 0.00 75 1021.3
20240221180004 71 168 8.7 19.1 0.00 0.00 0.00 77 1021.3
20240221175503 70 170 8.7 15.6 0.00 0.00 0.00 78 1021.3
20240221175003 70 156 8.7 16.5 0.00 0.00 0.00 78 1021.4
20240221174504 70 155 9.6 16.5 0.00 0.00 0.00 78 1021.4
20240221174003 69 161 9.6 15.6 0.00 0.00 0.00 79 1021.5
20240221173503 69 159 9.6 16.5 0.00 0.00 0.00 79 1021.7
20240221173025 69 160 8.7 17.4 0.00 0.00 0.00 79 1021.8
20240221172503 69 160 8.7 17.4 0.00 0.00 0.00 80 1021.9
20240221172004 68 164 9.6 15.6 0.00 0.00 0.00 81 1022.0
20240221171503 68 166 9.6 15.6 0.00 0.00 0.00 80 1022.1
20240221171003 68 162 9.6 17.4 0.00 0.00 0.00 81 1022.2
20240221170503 68 165 8.7 17.4 0.00 0.00 0.00 80 1022.2
20240221170003 67 165 9.6 16.5 0.00 0.00 0.00 81 1022.3
20240221165504 68 166 9.6 15.6 0.00 0.00 0.00 80 1022.3
20240221165003 68 172 10.4 20.0 0.00 0.00 0.00 80 1022.3
20240221164503 68 167 10.4 20.0 0.00 0.00 0.00 79 1022.4
20240221164004 68 156 9.6 19.1 0.00 0.00 0.00 79 1022.5
20240221163504 68 152 10.4 20.9 0.00 0.00 0.00 79 1022.6
20240221163004 68 153 11.3 20.9 0.00 0.00 0.00 78 1022.6
20240221162504 68 151 10.4 19.1 0.00 0.00 0.00 79 1022.6
20240221162004 68 149 9.6 17.4 0.00 0.00 0.00 80 1022.6
20240221161503 67 155 9.6 17.4 0.00 0.00 0.00 80 1022.8
20240221161003 67 155 10.4 17.4 0.00 0.00 0.00 80 1022.8
20240221160503 67 156 10.4 19.1 0.00 0.00 0.00 80 1022.9
20240221160024 67 162 10.4 19.1 0.00 0.00 0.00 80 1022.8
20240221155503 67 167 10.4 17.4 0.00 0.00 0.00 81 1022.8
20240221155003 66 166 10.4 17.4 0.00 0.00 0.00 81 1022.8
20240221154503 66 165 11.3 19.1 0.00 0.00 0.00 81 1022.8
20240221154003 66 167 9.6 19.1 0.00 0.00 0.00 83 1022.8
20240221153503 66 173 8.7 15.6 0.00 0.00 0.00 83 1022.8
20240221153003 65 166 10.4 20.0 0.00 0.00 0.00 85 1022.8
20240221152503 65 160 10.4 20.0 0.00 0.00 0.00 85 1022.8
20240221152003 64 163 11.3 19.1 0.00 0.00 0.00 84 1022.7
20240221151503 64 161 10.4 17.4 0.00 0.00 0.00 85 1022.7
20240221151003 64 166 9.6 17.4 0.00 0.00 0.00 86 1022.8
20240221150503 64 165 9.6 17.4 0.00 0.00 0.00 86 1022.7
20240221150003 64 166 8.7 15.6 0.00 0.00 0.00 86 1022.7
20240221145503 64 174 8.7 16.5 0.00 0.00 0.00 86 1022.7
20240221145003 64 168 8.7 16.5 0.00 0.00 0.00 87 1022.7
20240221144503 64 166 10.4 20.9 0.00 0.00 0.00 87 1022.5
20240221144003 64 164 9.6 20.9 0.00 0.00 0.00 87 1022.6
20240221143524 64 164 7.0 15.6 0.00 0.00 0.00 87 1022.5
20240221143003 63 170 7.0 15.6 0.00 0.00 0.00 87 1022.6
20240221142503 63 176 7.0 17.4 0.00 0.00 0.00 86 1022.5
20240221142003 63 174 8.7 17.4 0.00 0.00 0.00 86 1022.4
20240221141503 63 167 9.6 21.7 0.00 0.00 0.00 86 1022.3
20240221141003 63 165 9.6 21.7 0.00 0.00 0.00 86 1022.2
20240221140503 63 165 9.6 15.6 0.00 0.00 0.00 86 1022.3
20240221140003 63 164 9.6 19.1 0.00 0.00 0.00 86 1022.3
20240221135503 63 161 8.7 19.1 0.00 0.00 0.00 87 1022.2
20240221135003 63 160 6.1 11.3 0.00 0.00 0.00 87 1022.2
20240221134503 63 167 6.1 12.2 0.00 0.00 0.00 87 1022.3
20240221134003 63 173 5.2 12.2 0.00 0.00 0.00 87 1022.3
20240221133503 63 182 5.2 11.3 0.00 0.00 0.00 87 1022.3
20240221133003 63 184 6.1 13.9 0.00 0.00 0.00 87 1022.4
20240221132524 63 177 7.0 15.6 0.00 0.00 0.00 87 1022.4
20240221132003 63 168 8.7 17.4 0.00 0.00 0.00 87 1022.5
20240221131503 63 168 8.7 17.4 0.00 0.00 0.00 87 1022.5
20240221131003 63 175 7.0 14.8 0.00 0.00 0.00 87 1022.4
20240221130503 63 177 7.0 14.8 0.00 0.00 0.00 88 1022.4
20240221130003 63 170 7.0 13.9 0.00 0.00 0.00 88 1022.4
20240221125503 63 167 7.0 13.9 0.00 0.00 0.00 88 1022.4
20240221125003 63 171 6.1 13.9 0.00 0.00 0.00 87 1022.5
20240221124525 63 175 7.0 15.6 0.00 0.00 0.00 87 1022.4
20240221124004 63 181 7.0 15.6 0.00 0.00 0.00 87 1022.4
20240221123504 63 184 6.1 14.8 0.00 0.00 0.00 87 1022.4
20240221123025 63 181 6.1 14.8 0.00 0.00 0.00 87 1022.3
20240221122504 63 172 7.0 16.5 0.00 0.00 0.00 87 1022.2
20240221122004 63 167 7.0 13.9 0.00 0.00 0.00 87 1022.3
20240221121504 63 168 8.7 17.4 0.00 0.00 0.00 87 1022.2
20240221121004 63 172 10.4 20.9 0.00 0.00 0.00 87 1022.2
20240221120504 63 174 10.4 20.9 0.00 0.00 0.00 88 1022.2
20240221120004 63 172 9.6 17.4 0.00 0.00 0.00 88 1022.2
20240221115504 63 175 9.6 17.4 0.00 0.00 0.00 88 1022.2
20240221115004 63 176 8.7 15.6 0.00 0.00 0.00 88 1022.3
20240221114504 63 175 8.7 20.0 0.00 0.00 0.00 88 1022.2
20240221114004 63 174 8.7 20.0 0.00 0.00 0.00 89 1022.2
20240221113504 63 172 9.6 16.5 0.00 0.00 0.00 89 1022.2
20240221113004 63 176 9.6 19.1 0.00 0.00 0.00 89 1022.2
20240221112504 63 176 8.7 19.1 0.00 0.00 0.00 89 1022.2
20240221112004 63 172 7.0 12.2 0.00 0.00 0.00 90 1022.1
20240221111504 63 171 7.0 12.2 0.00 0.00 0.00 90 1022.0
20240221111004 63 170 7.0 13.9 0.00 0.00 0.00 90 1022.1
20240221110504 63 171 8.7 13.9 0.00 0.00 0.00 90 1022.1
20240221110004 63 172 8.7 24.3 0.00 0.00 0.00 90 1022.0
20240221105504 63 173 9.6 24.3 0.00 0.00 0.00 90 1022.0
20240221105004 63 171 8.7 17.4 0.00 0.00 0.00 90 1021.8
20240221104504 63 170 8.7 17.4 0.00 0.00 0.00 90 1021.8
20240221104004 63 176 8.7 22.6 0.00 0.00 0.00 90 1021.8
20240221103504 63 176 8.7 22.6 0.00 0.00 0.00 90 1021.9
20240221103004 62 175 11.3 17.4 0.00 0.00 0.00 91 1021.7
20240221102504 62 173 11.3 5.2 0.00 0.00 0.00 91 1021.9
20240221102004 62 173 11.3 5.2 0.00 0.00 0.00 91 1021.9
20240221101504 62 173 11.3 5.2 0.00 0.00 0.00 91 1021.9
20240221101004 62 173 11.3 5.2 0.00 0.00 0.00 91 1022.0
20240221100504 63 171 11.3 26.1 0.00 0.00 0.00 92 1021.9
20240221100004 63 169 11.3 26.1 0.00 0.00 0.00 92 1021.9
20240221095504 63 172 10.4 20.0 0.00 0.00 0.00 92 1021.8
20240221095004 62 171 8.7 17.4 0.00 0.00 0.00 92 1021.8
20240221094504 62 167 7.0 15.6 0.00 0.00 0.00 92 1021.9